Location: Montreal
(45.5000°N, 73.5830°W)
Time: 01:13:49
(UTC-04:00)

Envisat - Visible Passes

Search period start: 20 April 2018 00:00
Search period end: 30 April 2018 00:00
Orbit: 764 x 766 km, 98.2° (Epoch: 19 April)

Date Brightness Start Highest point End Pass type
(mag) Time Alt. Az. Time Alt. Az. Time Alt. Az.
20 Apr 4.1 20:44:20 10° S 20:49:12 45° W 20:54:05 10° NNW visible
21 Apr 5.8 21:49:55 10° WSW 21:52:05 13° W 21:54:16 10° WNW visible
22 Apr 5.0 21:10:40 10° SSW 21:14:56 27° W 21:19:15 10° NW visible
23 Apr 3.7 20:33:01 10° S 20:38:00 57° W 20:43:01 10° NNW visible
24 Apr 5.6 21:37:43 10° SW 21:40:47 16° W 21:43:53 10° NW visible
25 Apr 4.7 20:59:09 10° SSW 21:03:43 33° W 21:08:18 10° NNW visible
26 Apr 3.3 20:21:46 10° S 20:26:50 71° WSW 20:31:56 10° NNW visible
27 Apr 5.5 21:25:50 10° SW 21:29:31 20° W 21:33:13 10° NW visible
28 Apr 4.3 20:47:42 10° SSW 20:52:29 41° W 20:57:19 10° NNW visible
29 Apr 5.9 21:53:49 10° WSW 21:55:26 11° W 21:57:02 10° WNW visible
